User: anonymous
Location: Brno
(49.2000°N, 16.6330°E)
Time: 21:50:56
(UTC+02:00)
Language:

Cosmos 1459 Rocket - Orbit

View from above orbital plane
View from above orbital plane
View from above satellite
View from above satellite

Ground track
Ground track

The orbit data is extracted from the following two-line orbital elements,

1 14059U 83042B   14202.35107405  .00000015  00000-0 -27439-7 0  3588
2 14059 082.9742 129.9939 0042734 010.9311 103.2732 13.78453305569467
Epoch (UTC): 21 July 2014 08:25:32
Eccentricity: 0.0042734
inclination: 82.9742°
perigee height: 938 km
apogee height: 1001 km
right ascension of ascending node: 129.9939°
argument of perigee: 10.9311°
revolutions per day: 13.78453305
mean anomaly at epoch: 103.2732°
orbit number at epoch: 56946

The dashed part of the orbit path shows where the satellite is in the earth's shadow,  

DLR